TNO7207 SVMI-TFFR

Flight info

Callsign TNO7207
Flight time 1h 16m
Altitude 37000
Route SOSKA2 OPUTU DCT OPMEB UA550 ITEGO DCT PELMA DCT TULEX TULEX1A
Aircraft B738/M-SDE2E3FGHIRWXY/LB1

Departure

Time 2026-04-26 15:38
Airport Maiquetía Simón Bolívar International Airport (SVMI)

Arrival

Time 2026-04-26 16:54
Airport Maryse Condé International Airport (TFFR)
Time Latitude Longitude Altitude Speed Heading
2026-04-26 15:16 10.59827 -67.00398 226 ft 0 kts 178°
2026-04-26 15:25 10.59828 -67.00398 226 ft 2 kts 178°
2026-04-26 15:25 10.59854 -67.00398 226 ft 4 kts 178°
2026-04-26 15:25 10.59881 -67.00400 226 ft 4 kts 171°
2026-04-26 15:25 10.59906 -67.00407 226 ft 4 kts 143°
2026-04-26 15:26 10.59921 -67.00427 230 ft 4 kts 96°
2026-04-26 15:26 10.59922 -67.00437 227 ft 1 kts 88°
2026-04-26 15:26 10.59922 -67.00438 227 ft 1 kts 88°
2026-04-26 15:31 10.59922 -67.00434 229 ft 1 kts 88°
2026-04-26 15:32 10.59924 -67.00389 225 ft 7 kts 88°
2026-04-26 15:32 10.59927 -67.00314 224 ft 8 kts 87°
2026-04-26 15:32 10.59917 -67.00258 225 ft 8 kts 109°
2026-04-26 15:33 10.59908 -67.00202 222 ft 8 kts 90°
2026-04-26 15:33 10.59908 -67.00146 221 ft 8 kts 88°
2026-04-26 15:33 10.59910 -67.00092 221 ft 7 kts 88°
2026-04-26 15:33 10.59911 -67.00041 220 ft 7 kts 88°
2026-04-26 15:34 10.59913 -66.99991 219 ft 7 kts 88°
2026-04-26 15:34 10.59916 -66.99942 219 ft 7 kts 79°
2026-04-26 15:34 10.59951 -66.99915 218 ft 7 kts
2026-04-26 15:34 10.59998 -66.99914 218 ft 7 kts 359°
2026-04-26 15:35 10.60045 -66.99915 217 ft 7 kts 358°
2026-04-26 15:35 10.60090 -66.99916 221 ft 6 kts
2026-04-26 15:35 10.60126 -66.99891 216 ft 7 kts 58°
2026-04-26 15:35 10.60136 -66.99839 216 ft 9 kts 85°
2026-04-26 15:36 10.60140 -66.99758 218 ft 13 kts 88°
2026-04-26 15:36 10.60111 -66.99670 217 ft 14 kts 144°
2026-04-26 15:36 10.60019 -66.99660 220 ft 13 kts 182°
2026-04-26 15:36 10.59943 -66.99662 218 ft 8 kts 181°
2026-04-26 15:37 10.59907 -66.99625 216 ft 9 kts 87°
2026-04-26 15:37 10.59950 -66.99451 214 ft 56 kts 76°
2026-04-26 15:37 10.60103 -66.98826 181 ft 124 kts 76°
2026-04-26 15:37 10.60361 -66.97809 299 ft 163 kts 75°
2026-04-26 15:38 10.60650 -66.96646 855 ft 174 kts 76°
2026-04-26 15:38 10.60914 -66.95463 1670 ft 169 kts 79°
2026-04-26 15:38 10.61134 -66.94259 2254 ft 182 kts 80°
2026-04-26 15:38 10.61377 -66.92886 2514 ft 209 kts 80°
2026-04-26 15:39 10.61649 -66.91349 2699 ft 232 kts 80°
2026-04-26 15:39 10.61949 -66.89652 2899 ft 255 kts 80°
2026-04-26 15:39 10.62266 -66.87830 3386 ft 267 kts 81°
2026-04-26 15:39 10.62479 -66.86605 3952 ft 265 kts 81°
2026-04-26 15:40 10.62908 -66.84139 5093 ft 267 kts 81°
2026-04-26 15:40 10.63231 -66.82279 5908 ft 265 kts 81°
2026-04-26 15:40 10.63551 -66.80444 6794 ft 263 kts 81°
2026-04-26 15:40 10.63872 -66.78594 7484 ft 267 kts 82°
2026-04-26 15:41 10.64199 -66.76706 8113 ft 274 kts 82°
2026-04-26 15:41 10.64529 -66.74809 8957 ft 271 kts 82°
2026-04-26 15:41 10.64859 -66.72907 9670 ft 276 kts 82°
2026-04-26 15:41 10.65195 -66.70964 10302 ft 281 kts 81°
2026-04-26 15:42 10.65546 -66.68934 10539 ft 302 kts 81°
2026-04-26 15:42 10.65920 -66.66768 10779 ft 319 kts 81°
2026-04-26 15:42 10.66312 -66.64504 10978 ft 327 kts 82°
2026-04-26 15:42 10.66705 -66.62251 10996 ft 323 kts 81°
2026-04-26 15:43 10.67095 -66.59999 11009 ft 331 kts 81°
2026-04-26 15:43 10.67502 -66.57648 11054 ft 335 kts 81°
2026-04-26 15:43 10.68317 -66.52936 12265 ft 340 kts 81°
2026-04-26 15:44 10.68731 -66.50557 12941 ft 343 kts 80°
2026-04-26 15:44 10.70515 -66.46005 14198 ft 353 kts 65°
2026-04-26 15:44 10.71625 -66.43766 14781 ft 357 kts 64°
2026-04-26 15:45 10.73867 -66.39188 15862 ft 364 kts 66°
2026-04-26 15:45 10.74985 -66.36859 15959 ft 367 kts 65°
2026-04-26 15:46 10.77196 -66.32201 15981 ft 369 kts 65°
2026-04-26 15:46 10.78308 -66.29850 15982 ft 368 kts 66°
2026-04-26 15:46 10.79415 -66.27513 15980 ft 367 kts 66°
2026-04-26 15:46 10.80162 -66.25933 15977 ft 367 kts 66°
2026-04-26 15:47 10.81646 -66.22849 15978 ft 367 kts 62°
2026-04-26 15:47 10.85396 -66.19251 16513 ft 380 kts 37°
2026-04-26 15:47 10.87538 -66.17676 17195 ft 381 kts 37°
2026-04-26 15:48 10.89702 -66.16098 17773 ft 385 kts 37°
2026-04-26 15:48 10.91888 -66.14498 18294 ft 390 kts 37°
2026-04-26 15:48 10.94099 -66.12869 18777 ft 393 kts 37°
2026-04-26 15:48 10.96320 -66.11223 19313 ft 395 kts 37°
2026-04-26 15:49 10.98545 -66.09566 19797 ft 398 kts 38°
2026-04-26 15:49 11.00787 -66.07894 20314 ft 401 kts 37°
2026-04-26 15:49 11.03043 -66.06210 20776 ft 404 kts 37°
2026-04-26 15:49 11.05316 -66.04511 21246 ft 407 kts 37°
2026-04-26 15:50 11.07617 -66.02790 21660 ft 412 kts 37°
2026-04-26 15:50 11.09923 -66.01065 22205 ft 412 kts 37°
2026-04-26 15:50 11.12245 -65.99327 22623 ft 416 kts 37°
2026-04-26 15:50 11.14584 -65.97577 23065 ft 419 kts 37°
2026-04-26 15:51 11.16941 -65.95811 23511 ft 421 kts 36°
2026-04-26 15:51 11.19306 -65.94040 23867 ft 424 kts 36°
2026-04-26 15:51 11.21690 -65.92254 24214 ft 427 kts 36°
2026-04-26 15:51 11.24099 -65.90450 24512 ft 431 kts 36°
2026-04-26 15:52 11.26512 -65.88641 24942 ft 431 kts 36°
2026-04-26 15:52 11.28937 -65.86825 25240 ft 435 kts 36°
2026-04-26 15:52 11.31387 -65.84988 25574 ft 438 kts 36°
2026-04-26 15:52 11.33012 -65.83770 25796 ft 439 kts 36°
2026-04-26 15:53 11.36313 -65.81294 26244 ft 443 kts 36°
2026-04-26 15:53 11.38803 -65.79426 26544 ft 446 kts 36°
2026-04-26 15:53 11.41306 -65.77548 26873 ft 448 kts 36°
2026-04-26 15:53 11.43824 -65.75663 27215 ft 450 kts 35°
2026-04-26 15:54 11.46405 -65.73841 27544 ft 452 kts 33°
2026-04-26 15:54 11.49038 -65.72073 27851 ft 455 kts 32°
2026-04-26 15:54 11.51668 -65.70342 28149 ft 457 kts 32°
2026-04-26 15:54 11.54381 -65.68562 28452 ft 459 kts 32°
2026-04-26 15:55 11.57038 -65.66812 28755 ft 462 kts 32°
2026-04-26 15:55 11.59736 -65.65024 29042 ft 464 kts 32°
2026-04-26 15:55 11.62442 -65.63220 29327 ft 466 kts 33°
2026-04-26 15:55 11.65163 -65.61401 29607 ft 468 kts 33°
2026-04-26 15:56 11.67890 -65.59573 29878 ft 471 kts 33°
2026-04-26 15:56 11.70641 -65.57727 30077 ft 474 kts 33°
2026-04-26 15:56 11.73402 -65.55874 30292 ft 477 kts 33°
2026-04-26 15:56 11.76176 -65.54012 30531 ft 478 kts 33°
2026-04-26 15:57 11.78959 -65.52143 30763 ft 480 kts 33°
2026-04-26 15:57 11.81750 -65.50268 30984 ft 481 kts 33°
2026-04-26 15:57 11.84551 -65.48387 31222 ft 483 kts 33°
2026-04-26 15:57 11.86448 -65.47113 31422 ft 482 kts 33°
2026-04-26 15:58 11.90158 -65.44621 31864 ft 481 kts 33°
2026-04-26 15:58 11.92951 -65.42744 32175 ft 481 kts 33°
2026-04-26 15:58 11.95748 -65.40864 32453 ft 481 kts 34°
2026-04-26 15:58 11.98546 -65.38983 32741 ft 482 kts 34°
2026-04-26 15:59 12.01348 -65.37098 32999 ft 483 kts 34°
2026-04-26 15:59 12.04155 -65.35210 33289 ft 483 kts 34°
2026-04-26 15:59 12.06958 -65.33324 33618 ft 482 kts 34°
2026-04-26 15:59 12.09755 -65.31442 33929 ft 482 kts 34°
2026-04-26 16:00 12.12558 -65.29555 34176 ft 482 kts 34°
2026-04-26 16:00 12.15356 -65.27672 34478 ft 480 kts 34°
2026-04-26 16:00 12.18133 -65.25801 34851 ft 477 kts 34°
2026-04-26 16:00 12.20898 -65.23938 35174 ft 475 kts 34°
2026-04-26 16:01 12.23658 -65.22079 35438 ft 475 kts 34°
2026-04-26 16:01 12.26410 -65.20224 35702 ft 474 kts 34°
2026-04-26 16:01 12.29164 -65.18367 35989 ft 473 kts 34°
2026-04-26 16:01 12.31903 -65.16520 36294 ft 471 kts 34°
2026-04-26 16:02 12.34630 -65.14680 36604 ft 469 kts 34°
2026-04-26 16:02 12.37350 -65.12845 36877 ft 468 kts 34°
2026-04-26 16:02 12.39149 -65.11631 37006 ft 468 kts 34°
2026-04-26 16:03 12.44619 -65.07938 36991 ft 472 kts 34°
2026-04-26 16:03 12.50083 -65.04247 36978 ft 467 kts 34°
2026-04-26 16:04 12.55493 -65.00592 36986 ft 464 kts 34°
2026-04-26 16:04 12.60879 -64.96950 36984 ft 463 kts 34°
2026-04-26 16:05 12.66251 -64.93316 36992 ft 462 kts 34°
2026-04-26 16:05 12.71616 -64.89684 36993 ft 463 kts 34°
2026-04-26 16:06 12.76991 -64.86044 36996 ft 464 kts 34°
2026-04-26 16:06 12.82378 -64.82394 36999 ft 465 kts 34°
2026-04-26 16:07 12.87779 -64.78732 36992 ft 466 kts 34°
2026-04-26 16:07 12.93198 -64.75056 36994 ft 468 kts 34°
2026-04-26 16:08 12.98633 -64.71368 36992 ft 469 kts 34°
2026-04-26 16:08 13.04079 -64.67670 36995 ft 470 kts 34°
2026-04-26 16:09 13.09410 -64.63877 36983 ft 470 kts 42°
2026-04-26 16:09 13.14162 -64.59298 36992 ft 469 kts 45°
2026-04-26 16:10 13.18840 -64.54634 37000 ft 469 kts 45°
2026-04-26 16:10 13.23566 -64.50008 36997 ft 469 kts 44°
2026-04-26 16:11 13.28309 -64.45410 37001 ft 469 kts 44°
2026-04-26 16:11 13.33041 -64.40821 37001 ft 468 kts 44°
2026-04-26 16:12 13.37770 -64.36229 37001 ft 467 kts 44°
2026-04-26 16:12 13.44956 -64.29481 37000 ft 467 kts 43°
2026-04-26 16:13 13.49771 -64.25008 36998 ft 466 kts 43°
2026-04-26 16:13 13.54566 -64.20527 36996 ft 466 kts 43°
2026-04-26 16:14 13.59355 -64.16042 36995 ft 466 kts 43°
2026-04-26 16:15 13.66499 -64.09280 37000 ft 465 kts 44°
2026-04-26 16:15 13.71207 -64.04707 36995 ft 465 kts 44°
2026-04-26 16:16 13.78266 -63.97852 37009 ft 466 kts 44°
2026-04-26 16:16 13.82953 -63.93312 37014 ft 466 kts 44°
2026-04-26 16:17 13.87676 -63.88735 37001 ft 466 kts 44°
2026-04-26 16:17 13.92404 -63.84151 37005 ft 466 kts 44°
2026-04-26 16:18 13.99485 -63.77279 37004 ft 467 kts 44°
2026-04-26 16:19 14.06568 -63.70399 37011 ft 466 kts 44°
2026-04-26 16:20 14.13645 -63.63519 37006 ft 466 kts 44°
2026-04-26 16:20 14.20713 -63.56653 37008 ft 465 kts 44°
2026-04-26 16:21 14.25423 -63.52082 37010 ft 465 kts 44°
2026-04-26 16:21 14.30122 -63.47517 37013 ft 464 kts 44°
2026-04-26 16:22 14.34824 -63.42944 37009 ft 464 kts 44°
2026-04-26 16:22 14.39484 -63.38410 37015 ft 464 kts 44°
2026-04-26 16:23 14.44185 -63.33832 36655 ft 466 kts 44°
2026-04-26 16:23 14.46530 -63.31547 36342 ft 460 kts 44°
2026-04-26 16:23 14.48844 -63.29293 35958 ft 456 kts 44°
2026-04-26 16:24 14.51147 -63.27049 35573 ft 453 kts 44°
2026-04-26 16:24 14.53462 -63.24792 35182 ft 450 kts 44°
2026-04-26 16:24 14.55726 -63.22583 34801 ft 447 kts 44°
2026-04-26 16:24 14.57951 -63.20413 34425 ft 445 kts 44°
2026-04-26 16:25 14.60194 -63.18223 34022 ft 443 kts 44°
2026-04-26 16:25 14.62432 -63.16039 33597 ft 441 kts 44°
2026-04-26 16:25 14.64647 -63.13875 33192 ft 438 kts 44°
2026-04-26 16:25 14.66850 -63.11723 32807 ft 435 kts 43°
2026-04-26 16:26 14.69043 -63.09579 32420 ft 433 kts 43°
2026-04-26 16:26 14.70519 -63.08137 32167 ft 431 kts 43°
2026-04-26 16:26 14.73394 -63.05327 31676 ft 428 kts 43°
2026-04-26 16:26 14.75551 -63.03218 31310 ft 426 kts 43°
2026-04-26 16:27 14.77695 -63.01120 30948 ft 424 kts 43°
2026-04-26 16:27 14.79833 -62.99029 30587 ft 422 kts 43°
2026-04-26 16:27 14.81959 -62.96948 30221 ft 420 kts 42°
2026-04-26 16:27 14.84082 -62.94870 29809 ft 419 kts 42°
2026-04-26 16:28 14.86192 -62.92804 29410 ft 416 kts 43°
2026-04-26 16:28 14.88282 -62.90756 29018 ft 413 kts 43°
2026-04-26 16:28 14.90362 -62.88718 28638 ft 410 kts 43°
2026-04-26 16:28 14.92424 -62.86698 28265 ft 408 kts 43°
2026-04-26 16:29 14.94476 -62.84685 27901 ft 405 kts 43°
2026-04-26 16:29 14.96515 -62.82686 27534 ft 402 kts 43°
2026-04-26 16:29 14.98540 -62.80701 27180 ft 400 kts 43°
2026-04-26 16:29 15.00555 -62.78724 26814 ft 398 kts 43°
2026-04-26 16:30 15.02551 -62.76764 26464 ft 395 kts 43°
2026-04-26 16:30 15.04545 -62.74806 26111 ft 393 kts 43°
2026-04-26 16:30 15.06524 -62.72863 25771 ft 392 kts 43°
2026-04-26 16:30 15.08490 -62.70932 25414 ft 390 kts 43°
2026-04-26 16:31 15.10461 -62.68995 25062 ft 388 kts 43°
2026-04-26 16:31 15.12394 -62.67096 24705 ft 387 kts 44°
2026-04-26 16:31 15.14340 -62.65182 24346 ft 386 kts 44°
2026-04-26 16:31 15.16287 -62.63267 23994 ft 385 kts 44°
2026-04-26 16:32 15.18227 -62.61359 23629 ft 385 kts 44°
2026-04-26 16:32 15.19537 -62.60070 23357 ft 384 kts 44°
2026-04-26 16:32 15.22092 -62.57555 22855 ft 381 kts 44°
2026-04-26 16:32 15.24012 -62.55665 22492 ft 379 kts 44°
2026-04-26 16:33 15.25916 -62.53789 22135 ft 377 kts 44°
2026-04-26 16:33 15.27806 -62.51927 21797 ft 374 kts 43°
2026-04-26 16:33 15.29687 -62.50075 21447 ft 372 kts 43°
2026-04-26 16:33 15.31559 -62.48236 21104 ft 370 kts 42°
2026-04-26 16:34 15.33586 -62.46619 20757 ft 367 kts 30°
2026-04-26 16:34 15.35800 -62.45324 20444 ft 364 kts 27°
2026-04-26 16:34 15.38024 -62.44087 20107 ft 362 kts 27°
2026-04-26 16:34 15.40241 -62.42867 19773 ft 360 kts 27°
2026-04-26 16:35 15.42452 -62.41646 19435 ft 359 kts 27°
2026-04-26 16:35 15.44650 -62.40424 19091 ft 358 kts 27°
2026-04-26 16:35 15.46840 -62.39200 18735 ft 357 kts 27°
2026-04-26 16:35 15.49025 -62.37973 18404 ft 356 kts 27°
2026-04-26 16:36 15.51199 -62.36749 18017 ft 355 kts 27°
2026-04-26 16:36 15.53367 -62.35527 17651 ft 353 kts 28°
2026-04-26 16:36 15.55488 -62.34328 17314 ft 351 kts 28°
2026-04-26 16:36 15.57626 -62.33121 16969 ft 349 kts 28°
2026-04-26 16:37 15.59779 -62.31904 16629 ft 347 kts 28°
2026-04-26 16:37 15.61861 -62.30726 16302 ft 344 kts 28°
2026-04-26 16:37 15.63958 -62.29540 15973 ft 342 kts 27°
2026-04-26 16:37 15.65365 -62.28744 15754 ft 341 kts 28°
2026-04-26 16:38 15.68119 -62.27185 15867 ft 338 kts 28°
2026-04-26 16:38 15.70192 -62.26010 15432 ft 340 kts 28°
2026-04-26 16:38 15.72261 -62.24839 15183 ft 336 kts 28°
2026-04-26 16:38 15.74299 -62.23686 14916 ft 332 kts 28°
2026-04-26 16:39 15.76299 -62.22559 14805 ft 322 kts 28°
2026-04-26 16:39 15.78256 -62.21449 14504 ft 320 kts 28°
2026-04-26 16:39 15.80212 -62.20339 14132 ft 321 kts 28°
2026-04-26 16:39 15.82162 -62.19232 13819 ft 319 kts 28°
2026-04-26 16:40 15.84101 -62.18132 13107 ft 315 kts 27°
2026-04-26 16:40 15.86020 -62.17044 12793 ft 314 kts 27°
2026-04-26 16:40 15.87928 -62.15962 12486 ft 312 kts 27°
2026-04-26 16:40 15.89840 -62.14878 12101 ft 313 kts 28°
2026-04-26 16:41 15.91746 -62.13796 11856 ft 310 kts 28°
2026-04-26 16:41 15.93634 -62.12724 11517 ft 310 kts 28°
2026-04-26 16:41 15.95524 -62.11652 11210 ft 309 kts 28°
2026-04-26 16:41 15.97400 -62.10587 10939 ft 307 kts 28°
2026-04-26 16:42 15.99278 -62.09520 10610 ft 307 kts 28°
2026-04-26 16:42 16.01139 -62.08462 10374 ft 304 kts 28°
2026-04-26 16:42 16.02952 -62.07431 10187 ft 299 kts 28°
2026-04-26 16:42 16.04764 -62.06400 9963 ft 295 kts 28°
2026-04-26 16:43 16.06560 -62.05379 9689 ft 294 kts 28°
2026-04-26 16:43 16.08350 -62.04362 9442 ft 292 kts 28°
2026-04-26 16:43 16.10125 -62.03357 9189 ft 290 kts 28°
2026-04-26 16:43 16.11903 -62.02352 8859 ft 291 kts 29°
2026-04-26 16:44 16.13665 -62.01345 8687 ft 286 kts 29°
2026-04-26 16:44 16.15413 -62.00348 8369 ft 287 kts 29°
2026-04-26 16:44 16.17160 -61.99352 8137 ft 285 kts 29°
2026-04-26 16:44 16.18896 -61.98364 7866 ft 284 kts 30°
2026-04-26 16:45 16.20630 -61.97375 7596 ft 283 kts 30°
2026-04-26 16:45 16.22352 -61.96395 7337 ft 282 kts 30°
2026-04-26 16:45 16.24070 -61.95416 7041 ft 282 kts 30°
2026-04-26 16:45 16.25780 -61.94443 6844 ft 278 kts 30°
2026-04-26 16:46 16.27403 -61.93386 6470 ft 275 kts 45°
2026-04-26 16:46 16.28408 -61.91739 6120 ft 267 kts 73°
2026-04-26 16:46 16.28852 -61.89917 5967 ft 254 kts 82°
2026-04-26 16:46 16.29143 -61.88139 5782 ft 245 kts 84°
2026-04-26 16:47 16.29417 -61.86409 5557 ft 239 kts 83°
2026-04-26 16:47 16.29694 -61.84731 5440 ft 232 kts 83°
2026-04-26 16:47 16.29973 -61.83081 5194 ft 231 kts 83°
2026-04-26 16:47 16.30259 -61.81438 4978 ft 229 kts 83°
2026-04-26 16:48 16.30540 -61.79832 4757 ft 222 kts 83°
2026-04-26 16:48 16.30813 -61.78273 4499 ft 214 kts 83°
2026-04-26 16:48 16.30900 -61.76797 4280 ft 197 kts 99°
2026-04-26 16:48 16.30678 -61.75434 4099 ft 185 kts 104°
2026-04-26 16:49 16.30420 -61.74133 3861 ft 181 kts 103°
2026-04-26 16:49 16.30184 -61.72880 3698 ft 172 kts 104°
2026-04-26 16:49 16.29962 -61.71677 3497 ft 169 kts 104°
2026-04-26 16:49 16.29739 -61.70474 3292 ft 170 kts 104°
2026-04-26 16:50 16.29588 -61.69678 3144 ft 168 kts 104°
2026-04-26 16:50 16.29306 -61.68148 2845 ft 154 kts 104°
2026-04-26 16:50 16.29172 -61.67428 2680 ft 148 kts 104°
2026-04-26 16:50 16.28912 -61.66038 2411 ft 149 kts 104°
2026-04-26 16:51 16.28715 -61.64973 2201 ft 150 kts 103°
2026-04-26 16:51 16.28583 -61.64264 2077 ft 145 kts 103°
2026-04-26 16:51 16.28395 -61.63263 1860 ft 142 kts 104°
2026-04-26 16:51 16.28204 -61.62226 1657 ft 141 kts 103°
2026-04-26 16:52 16.28021 -61.61238 1457 ft 145 kts 102°
2026-04-26 16:52 16.27891 -61.60532 1336 ft 149 kts 102°
2026-04-26 16:52 16.27627 -61.59114 1035 ft 148 kts 102°
2026-04-26 16:52 16.27434 -61.58080 840 ft 149 kts 101°
2026-04-26 16:53 16.27240 -61.57018 627 ft 151 kts 102°
2026-04-26 16:53 16.27045 -61.55963 385 ft 147 kts 102°
2026-04-26 16:53 16.26864 -61.54899 144 ft 151 kts 103°
2026-04-26 16:53 16.26657 -61.53841 25 ft 142 kts 102°
2026-04-26 16:54 16.26488 -61.52953 18 ft 97 kts 101°
2026-04-26 16:54 16.26431 -61.52643 18 ft 10 kts 101°
2026-04-26 16:54 16.26395 -61.52590 19 ft 9 kts 150°
2026-04-26 16:54 16.26346 -61.52585 19 ft 4 kts 187°
2026-04-26 16:55 16.26340 -61.52586 19 ft 0 kts 188°
2026-04-26 16:55 16.26337 -61.52587 19 ft 1 kts 189°
2026-04-26 16:56 16.26324 -61.52588 20 ft 5 kts 181°
2026-04-26 16:56 16.26287 -61.52546 24 ft 12 kts 102°
2026-04-26 16:56 16.26276 -61.52451 24 ft 12 kts 101°
2026-04-26 16:57 16.26271 -61.52387 25 ft 6 kts 69°
2026-04-26 16:57 16.26276 -61.52380 25 ft 0 kts 57°
2026-04-26 16:57 16.26297 -61.52363 27 ft 9 kts 26°
2026-04-26 16:58 16.26359 -61.52320 26 ft 14 kts 60°
2026-04-26 16:58 16.26385 -61.52255 27 ft 16 kts 51°
2026-04-26 16:58 16.26651 -61.52186 20 ft 16 kts 11°
2026-04-26 16:59 16.26727 -61.52234 21 ft 13 kts 290°
2026-04-26 16:59 16.26749 -61.52343 20 ft 0 kts 279°
2026-04-26 17:00 16.26780 -61.52359 20 ft 8 kts 359°
2026-04-26 17:00 16.26848 -61.52347 20 ft 3 kts 11°
2026-04-26 17:00 16.26850 -61.52347 20 ft 0 kts 11°